STARLINK-3878, 52479

Orbit data source: Space-Track

STARLINK-3878, 52479 is a payload satellite owned by SpaceX/Seattle (US) in LEO that was launched on Fri, 06 May 2022 UTC via an FALCON 9 launch vehicle from the Air Force Eastern Test Range (AFETR). Payload-class satellites include a variety of spacecraft equipped with specific instruments for various scientific and technological missions. These include communications satellites like Starlink; space stations such as the ISS; scientific satellites like the Hubble; Earth observation satellites from companies like Planet Labs, Umbra, and HawkEye 360; GPS; miniature CubeSats for education and research; and military/defense satellites.

Loading next visibility...
Identifier
52479, 2022-049AE
Orbit
LEO
Country
Flag of USUS
Related business
Manufacturer
SpaceX/Seattle
Mission
Operational Commercial Communications
Bus & Motor
STARLINK, Unknown motor
Mass
297 kg wet, ~220 kg dry
Launch date (UTC)
2022-05-06 (4 years ago)
Launch vehicle
FALCON 9
Launch site
Air Force Eastern Test Range (AFETR)
Object type
Payload
Rocket body
Debris
Shape & HBR
Box + 1 Pan, 10.1 m
Radar Cross Section
13.562 m², Large (>1 m²)

Expand to show TLE details & history
Last TLE update: 19 hours ago

TLE from 19 hours ago
0 STARLINK-3878
1 52479U 22049AE  26206.55936035  .00000944  00000-0  77410-4 0  9996
2 52479  53.1598 149.8730 0001460  93.8907 266.2251 15.08826276234445
Epoch: 2026-07-25T13:25Z
TLE epoch observation values (Epoch: 2026-07-25T13:25:28.734Z)
Latitude
-0.00004°
Longitude
5.23335°
Altitude
540.743 km
Speed
7.593 km/s
True Right ascension
09h 59m 29s
True Declination
0° 00' 00"
Sunlit
Object was in daylight at epoch
Visualization orbit readout
Latitude
Unknown
Longitude
Unknown
Altitude
Unknown
Speed
Unknown
Apparent Right ascension
Unknown
Apparent Declination
Unknown
Sunlit
N/A
Visualization observer readout
Local Sidereal Time
22:11:08
Azimuth
Unknown
Elevation
Unknown
Doppler factor
Unknown
Orbital elements
Apogee altitude
541.05 km
Perigee altitude
539.029 km
Semi-major axis
6,918.176 km
Eccentricity
0.00015
Inclination
53.1598°
RAAN
149.873°
Arg. of periapsis
93.8907°
True anomaly
266.20841°
Mean anomaly
266.2251°
Eccentric anomaly
266.21675°
Mean motion
3.77186 °/min
Orbital period
95.44 mins
BSTAR
0.00007741
Loading maneuver chart data...
Computing Atmospheric mass density...
Loading historical data...
Loading historical data...
Loading historical data...
Loading historical data...
Loading historical data...
Loading historical data...
Loading historical data...

Documentation

Showing up to 5 results
|